Time,TemperatureF,DewpointF,PressureIn,WindDirection,WindDirectionDegrees,WindSpeedMPH,WindSpeedGustMPH,Humidity,HourlyPrecipIn,Conditions,Clouds,dailyrainin,SolarRadiationWatts/m^2,SoftwareType,DateUTC
2013-02-07 00:00:00,35.4,29.8,30.11,East,89,2.0,2.0,80,0.00,,,0.00,0,Wunderground v.1.15,2013-02-07 05:00:00,
2013-02-07 00:05:00,35.4,29.5,30.12,East,97,2.0,2.0,79,0.00,,,0.00,0,Wunderground v.1.15,2013-02-07 05:05:00,
2013-02-07 00:10:00,35.4,29.5,30.11,East,85,2.0,5.0,79,0.00,,,0.00,0,Wunderground v.1.15,2013-02-07 05:10:00,
2013-02-07 00:15:00,35.3,29.7,30.11,ESE,120,3.0,5.0,80,0.00,,,0.00,0,Wunderground v.1.15,2013-02-07 05:15:00,
2013-02-07 00:20:00,35.3,29.7,30.11,East,100,2.0,2.0,80,0.00,,,0.00,0,Wunderground v.1.15,2013-02-07 05:20:00,
2013-02-07 00:30:00,35.5,29.9,30.10,SE,126,2.0,2.0,80,0.00,,,0.00,0,Wunderground v.1.15,2013-02-07 05:30:00,
2013-02-07 00:35:00,35.5,29.9,30.10,ESE,105,2.0,4.0,80,0.00,,,0.00,0,Wunderground v.1.15,2013-02-07 05:35:00,
2013-02-07 00:45:00,35.5,29.9,30.09,East,97,2.0,3.0,80,0.00,,,0.00,0,Wunderground v.1.15,2013-02-07 05:45:00,
2013-02-07 00:50:00,35.5,29.9,30.10,ESE,121,2.0,2.0,80,0.00,,,0.00,0,Wunderground v.1.15,2013-02-07 05:50:00,
2013-02-07 01:00:00,35.4,29.8,30.09,ESE,108,2.0,2.0,80,0.00,,,0.00,0,Wunderground v.1.15,2013-02-07 06:00:00,
2013-02-07 01:05:00,35.4,29.8,30.09,East,100,2.0,3.0,80,0.00,,,0.00,0,Wunderground v.1.15,2013-02-07 06:05:00,
2013-02-07 01:10:00,35.4,29.8,30.09,East,101,2.0,2.0,80,0.00,,,0.00,0,Wunderground v.1.15,2013-02-07 06:10:00,
2013-02-07 01:20:00,35.3,30.1,30.08,East,101,2.0,2.0,81,0.00,,,0.00,0,Wunderground v.1.15,2013-02-07 06:20:00,
2013-02-07 01:25:00,35.2,29.6,30.08,ESE,120,2.0,2.0,80,0.00,,,0.00,0,Wunderground v.1.15,2013-02-07 06:25:00,
2013-02-07 01:35:00,35.1,29.9,30.07,SE,125,2.0,4.0,81,0.00,,,0.00,0,Wunderground v.1.15,2013-02-07 06:35:00,
2013-02-07 01:40:00,35.1,29.9,30.08,SE,129,3.0,3.0,81,0.00,,,0.00,0,Wunderground v.1.15,2013-02-07 06:40:00,
2013-02-07 01:45:00,35.0,29.8,30.08,ESE,111,2.0,4.0,81,0.00,,,0.00,0,Wunderground v.1.15,2013-02-07 06:45:00,
2013-02-07 01:55:00,34.8,29.6,30.07,ESE,118,3.0,4.0,81,0.00,,,0.00,0,Wunderground v.1.15,2013-02-07 06:55:00,
2013-02-07 02:00:00,34.7,29.5,30.08,SE,133,4.0,4.0,81,0.00,,,0.00,0,Wunderground v.1.15,2013-02-07 07:00:00,
2013-02-07 02:10:00,34.7,29.8,30.08,ESE,108,2.0,2.0,82,0.00,,,0.00,0,Wunderground v.1.15,2013-02-07 07:10:00,
2013-02-07 02:15:00,34.7,29.8,30.08,SE,135,2.0,5.0,82,0.00,,,0.00,0,Wunderground v.1.15,2013-02-07 07:15:00,
2013-02-07 02:25:00,34.6,29.7,30.07,ESE,110,2.0,3.0,82,0.00,,,0.00,0,Wunderground v.1.15,2013-02-07 07:25:00,
2013-02-07 02:30:00,34.7,29.8,30.07,ESE,120,2.0,3.0,82,0.00,,,0.00,0,Wunderground v.1.15,2013-02-07 07:30:00,
2013-02-07 02:40:00,34.8,29.9,30.07,East,98,1.0,1.0,82,0.00,,,0.00,0,Wunderground v.1.15,2013-02-07 07:40:00,
2013-02-07 02:45:00,34.9,30.0,30.08,East,98,0.0,1.0,82,0.00,,,0.00,0,Wunderground v.1.15,2013-02-07 07:45:00,
2013-02-07 02:55:00,35.0,30.1,30.08,ESE,123,1.0,1.0,82,0.00,,,0.00,0,Wunderground v.1.15,2013-02-07 07:55:00,
2013-02-07 03:00:00,35.1,30.2,30.08,ESE,116,1.0,1.0,82,0.00,,,0.00,0,Wunderground v.1.15,2013-02-07 08:00:00,
2013-02-07 03:10:00,35.4,30.5,30.08,ESE,114,2.0,2.0,82,0.00,,,0.00,0,Wunderground v.1.15,2013-02-07 08:10:00,
2013-02-07 03:15:00,35.5,30.2,30.08,ESE,114,1.0,2.0,81,0.00,,,0.00,0,Wunderground v.1.15,2013-02-07 08:15:00,
2013-02-07 03:25:00,35.5,30.5,30.08,ESE,114,1.0,2.0,82,0.00,,,0.00,0,Wunderground v.1.15,2013-02-07 08:25:00,
2013-02-07 03:30:00,35.5,30.2,30.08,East,100,1.0,1.0,81,0.00,,,0.00,0,Wunderground v.1.15,2013-02-07 08:30:00,
2013-02-07 03:35:00,35.6,30.3,30.08,East,100,1.0,1.0,81,0.00,,,0.00,0,Wunderground v.1.15,2013-02-07 08:35:00,
2013-02-07 03:45:00,35.5,30.5,30.08,East,95,1.0,2.0,82,0.00,,,0.00,0,Wunderground v.1.15,2013-02-07 08:45:00,
2013-02-07 03:50:00,35.5,30.5,30.08,East,95,1.0,1.0,82,0.00,,,0.00,0,Wunderground v.1.15,2013-02-07 08:50:00,
2013-02-07 04:00:00,35.6,30.6,30.07,SE,125,2.0,2.0,82,0.00,,,0.00,0,Wunderground v.1.15,2013-02-07 09:00:00,
2013-02-07 04:05:00,35.6,30.3,30.07,ESE,112,3.0,3.0,81,0.00,,,0.00,0,Wunderground v.1.15,2013-02-07 09:05:00,
2013-02-07 04:10:00,35.7,30.7,30.07,ESE,116,2.0,2.0,82,0.00,,,0.00,0,Wunderground v.1.15,2013-02-07 09:10:00,
2013-02-07 04:20:00,35.8,30.8,30.07,SSE,147,2.0,2.0,82,0.00,,,0.00,0,Wunderground v.1.15,2013-02-07 09:20:00,
2013-02-07 04:25:00,35.8,30.8,30.07,ESE,112,1.0,2.0,82,0.00,,,0.00,0,Wunderground v.1.15,2013-02-07 09:25:00,
2013-02-07 04:35:00,35.8,30.8,30.06,East,101,2.0,2.0,82,0.00,,,0.00,0,Wunderground v.1.15,2013-02-07 09:35:00,
2013-02-07 04:40:00,35.8,30.8,30.06,East,85,1.0,2.0,82,0.00,,,0.00,0,Wunderground v.1.15,2013-02-07 09:40:00,
2013-02-07 04:50:00,35.7,30.7,30.06,ESE,113,1.0,3.0,82,0.00,,,0.00,0,Wunderground v.1.15,2013-02-07 09:50:00,
2013-02-07 04:55:00,35.6,30.9,30.06,SE,128,2.0,3.0,83,0.00,,,0.00,0,Wunderground v.1.15,2013-02-07 09:55:00,
2013-02-07 05:00:00,35.5,30.8,30.06,ESE,112,2.0,2.0,83,0.00,,,0.00,0,Wunderground v.1.15,2013-02-07 10:00:00,
2013-02-07 05:10:00,35.9,30.9,30.05,SE,124,3.0,4.0,82,0.00,,,0.00,0,Wunderground v.1.15,2013-02-07 10:10:00,
2013-02-07 05:20:00,36.1,31.1,30.05,SE,125,5.0,5.0,82,0.00,,,0.00,0,Wunderground v.1.15,2013-02-07 10:20:00,
2013-02-07 05:25:00,36.1,31.1,30.06,SSE,156,4.0,5.0,82,0.00,,,0.00,0,Wunderground v.1.15,2013-02-07 10:25:00,
2013-02-07 05:35:00,36.0,31.0,30.05,ESE,110,4.0,5.0,82,0.00,,,0.00,0,Wunderground v.1.15,2013-02-07 10:35:00,
2013-02-07 05:40:00,35.8,30.8,30.05,ESE,111,4.0,4.0,82,0.00,,,0.00,0,Wunderground v.1.15,2013-02-07 10:40:00,
2013-02-07 05:50:00,35.7,30.7,30.04,SSE,147,4.0,4.0,82,0.00,,,0.00,0,Wunderground v.1.15,2013-02-07 10:50:00,
2013-02-07 05:55:00,35.7,31.0,30.04,ESE,110,4.0,4.0,83,0.00,,,0.00,0,Wunderground v.1.15,2013-02-07 10:55:00,
2013-02-07 06:00:00,35.7,31.0,30.04,ESE,118,4.0,4.0,83,0.00,,,0.00,0,Wunderground v.1.15,2013-02-07 11:00:00,
2013-02-07 06:10:00,35.7,31.0,30.04,ESE,114,3.0,3.0,83,0.00,,,0.00,0,Wunderground v.1.15,2013-02-07 11:10:00,
2013-02-07 06:15:00,35.7,31.0,30.04,ESE,118,3.0,4.0,83,0.00,,,0.00,0,Wunderground v.1.15,2013-02-07 11:15:00,
2013-02-07 06:25:00,35.7,31.0,30.04,ESE,104,2.0,3.0,83,0.00,,,0.00,0,Wunderground v.1.15,2013-02-07 11:25:00,
2013-02-07 06:30:00,35.7,31.0,30.03,ESE,121,1.0,2.0,83,0.00,,,0.00,0,Wunderground v.1.15,2013-02-07 11:30:00,
2013-02-07 06:40:00,35.7,31.3,30.03,East,88,2.0,2.0,84,0.00,,,0.00,0,Wunderground v.1.15,2013-02-07 11:40:00,
2013-02-07 06:45:00,35.8,31.1,30.03,ENE,74,2.0,3.0,83,0.00,,,0.00,0,Wunderground v.1.15,2013-02-07 11:45:00,
2013-02-07 06:50:00,36.0,31.6,30.02,ESE,106,2.0,2.0,84,0.00,,,0.00,0,Wunderground v.1.15,2013-02-07 11:50:00,
2013-02-07 07:00:00,36.2,31.5,30.03,ESE,116,2.0,3.0,83,0.00,,,0.00,0,Wunderground v.1.15,2013-02-07 12:00:00,
2013-02-07 07:05:00,36.4,31.7,30.02,ESE,110,3.0,5.0,83,0.00,,,0.00,0,Wunderground v.1.15,2013-02-07 12:05:00,
2013-02-07 07:15:00,36.5,31.8,30.03,SE,126,2.0,3.0,83,0.00,,,0.00,0,Wunderground v.1.15,2013-02-07 12:15:00,
2013-02-07 07:20:00,36.5,31.8,30.02,SE,126,2.0,2.0,83,0.00,,,0.00,0,Wunderground v.1.15,2013-02-07 12:20:00,
2013-02-07 07:30:00,36.6,31.6,30.02,SE,133,2.0,2.0,82,0.00,,,0.00,0,Wunderground v.1.15,2013-02-07 12:30:00,
2013-02-07 07:35:00,36.5,31.5,30.02,ESE,103,2.0,2.0,82,0.00,,,0.00,0,Wunderground v.1.15,2013-02-07 12:35:00,
2013-02-07 07:40:00,36.6,31.6,30.03,East,93,1.0,1.0,82,0.00,,,0.00,0,Wunderground v.1.15,2013-02-07 12:40:00,
2013-02-07 07:50:00,36.7,31.7,30.02,East,93,1.0,1.0,82,0.00,,,0.00,5,Wunderground v.1.15,2013-02-07 12:50:00,
2013-02-07 07:55:00,36.5,31.5,30.02,NNW,327,1.0,3.0,82,0.00,,,0.00,7,Wunderground v.1.15,2013-02-07 12:55:00,
2013-02-07 08:05:00,36.1,31.4,30.03,NW,326,1.0,1.0,83,0.00,,,0.00,16,Wunderground v.1.15,2013-02-07 13:05:00,
2013-02-07 08:10:00,35.9,31.2,30.03,East,97,1.0,1.0,83,0.00,,,0.00,21,Wunderground v.1.15,2013-02-07 13:10:00,
2013-02-07 08:20:00,35.7,31.3,30.03,East,100,1.0,1.0,84,0.00,,,0.00,32,Wunderground v.1.15,2013-02-07 13:20:00,
2013-02-07 08:25:00,35.5,31.1,30.03,East,100,0.0,1.0,84,0.00,,,0.00,39,Wunderground v.1.15,2013-02-07 13:25:00,
2013-02-07 08:35:00,35.3,31.2,30.03,East,100,0.0,1.0,85,0.00,,,0.00,53,Wunderground v.1.15,2013-02-07 13:35:00,
2013-02-07 08:40:00,35.3,31.2,30.03,East,100,1.0,1.0,85,0.00,,,0.00,54,Wunderground v.1.15,2013-02-07 13:40:00,
2013-02-07 08:50:00,35.9,31.8,30.02,ESE,104,0.0,0.0,85,0.00,,,0.00,139,Wunderground v.1.15,2013-02-07 13:50:00,
2013-02-07 09:00:00,38.1,33.1,30.02,SE,127,1.0,1.0,82,0.00,,,0.00,156,Wunderground v.1.15,2013-02-07 14:00:00,
2013-02-07 09:05:00,39.2,33.2,30.02,ESE,118,2.0,2.0,79,0.00,,,0.00,165,Wunderground v.1.15,2013-02-07 14:05:00,
2013-02-07 09:10:00,40.0,33.4,30.01,ENE,76,3.0,3.0,77,0.00,,,0.00,176,Wunderground v.1.15,2013-02-07 14:10:00,
2013-02-07 09:20:00,40.6,33.3,30.01,ESE,117,4.0,8.0,75,0.00,,,0.00,204,Wunderground v.1.15,2013-02-07 14:20:00,
2013-02-07 09:25:00,40.5,33.2,30.01,ESE,114,5.0,8.0,75,0.00,,,0.00,220,Wunderground v.1.15,2013-02-07 14:25:00,
2013-02-07 09:35:00,40.9,33.6,30.01,ESE,102,4.0,5.0,75,0.00,,,0.00,244,Wunderground v.1.15,2013-02-07 14:35:00,
2013-02-07 09:40:00,40.8,33.2,30.01,SE,127,6.0,6.0,74,0.00,,,0.00,258,Wunderground v.1.15,2013-02-07 14:40:00,
2013-02-07 09:50:00,41.2,33.9,30.01,SSE,149,6.0,6.0,75,0.00,,,0.00,288,Wunderground v.1.15,2013-02-07 14:50:00,
2013-02-07 09:55:00,41.9,33.9,30.01,ESE,104,4.0,6.0,73,0.00,,,0.00,302,Wunderground v.1.15,2013-02-07 14:55:00,
2013-02-07 10:05:00,42.5,34.1,30.00,East,96,4.0,5.0,72,0.00,,,0.00,327,Wunderground v.1.15,2013-02-07 15:05:00,
2013-02-07 10:10:00,43.1,34.3,30.01,SE,137,4.0,4.0,71,0.00,,,0.00,341,Wunderground v.1.15,2013-02-07 15:10:00,
2013-02-07 10:15:00,43.5,34.0,30.01,SE,145,3.0,8.0,69,0.00,,,0.00,353,Wunderground v.1.15,2013-02-07 15:15:00,
2013-02-07 10:25:00,44.2,34.3,30.00,SE,142,4.0,4.0,68,0.00,,,0.00,380,Wunderground v.1.15,2013-02-07 15:25:00,
2013-02-07 10:30:00,44.7,34.8,30.01,SSE,154,2.0,2.0,68,0.00,,,0.00,392,Wunderground v.1.15,2013-02-07 15:30:00,
2013-02-07 10:40:00,45.7,34.6,30.00,South,177,2.0,3.0,65,0.00,,,0.00,413,Wunderground v.1.15,2013-02-07 15:40:00,
2013-02-07 10:45:00,46.4,34.9,30.00,SE,138,2.0,3.0,64,0.00,,,0.00,427,Wunderground v.1.15,2013-02-07 15:45:00,
2013-02-07 10:55:00,47.6,34.8,30.00,SSE,166,2.0,4.0,61,0.00,,,0.00,448,Wunderground v.1.15,2013-02-07 15:55:00,
2013-02-07 11:00:00,47.7,34.9,30.00,SSE,155,3.0,3.0,61,0.00,,,0.00,461,Wunderground v.1.15,2013-02-07 16:00:00,
2013-02-07 11:05:00,48.1,35.3,30.00,SE,143,2.0,3.0,61,0.00,,,0.00,471,Wunderground v.1.15,2013-02-07 16:05:00,
2013-02-07 11:15:00,49.7,35.9,30.00,ESE,106,1.0,3.0,59,0.00,,,0.00,487,Wunderground v.1.15,2013-02-07 16:15:00,
2013-02-07 11:20:00,50.4,35.7,29.99,SSE,149,2.0,2.0,57,0.00,,,0.00,497,Wunderground v.1.15,2013-02-07 16:20:00,
2013-02-07 11:25:00,50.7,35.6,29.99,East,99,2.0,2.0,56,0.00,,,0.00,506,Wunderground v.1.15,2013-02-07 16:25:00,
2013-02-07 11:35:00,51.5,35.9,29.98,South,191,1.0,2.0,55,0.00,,,0.00,522,Wunderground v.1.15,2013-02-07 16:35:00,
2013-02-07 11:45:00,51.9,35.8,29.98,East,99,2.0,6.0,54,0.00,,,0.00,534,Wunderground v.1.15,2013-02-07 16:45:00,
2013-02-07 11:50:00,52.3,36.1,29.97,SSW,212,3.0,3.0,54,0.00,,,0.00,541,Wunderground v.1.15,2013-02-07 16:50:00,
2013-02-07 12:00:00,53.6,36.9,29.97,South,179,2.0,2.0,53,0.00,,,0.00,552,Wunderground v.1.15,2013-02-07 17:00:00,
2013-02-07 12:05:00,53.8,36.6,29.97,SSE,152,2.0,2.0,52,0.00,,,0.00,559,Wunderground v.1.15,2013-02-07 17:05:00,
2013-02-07 12:10:00,53.9,36.7,29.97,East,96,2.0,5.0,52,0.00,,,0.00,561,Wunderground v.1.15,2013-02-07 17:10:00,
2013-02-07 12:20:00,54.1,36.4,29.96,ENE,73,4.0,4.0,51,0.00,,,0.00,568,Wunderground v.1.15,2013-02-07 17:20:00,
2013-02-07 12:25:00,54.4,36.6,29.95,SSE,148,3.0,5.0,51,0.00,,,0.00,570,Wunderground v.1.15,2013-02-07 17:25:00,
2013-02-07 12:30:00,54.6,36.8,29.95,ESE,106,3.0,3.0,51,0.00,,,0.00,575,Wunderground v.1.15,2013-02-07 17:30:00,
2013-02-07 12:40:00,54.8,36.5,29.93,East,100,4.0,4.0,50,0.00,,,0.00,584,Wunderground v.1.15,2013-02-07 17:40:00,
2013-02-07 12:45:00,55.2,36.9,29.93,SSE,149,5.0,5.0,50,0.00,,,0.00,585,Wunderground v.1.15,2013-02-07 17:45:00,
2013-02-07 12:55:00,56.0,37.1,29.92,SE,135,3.0,4.0,49,0.00,,,0.00,587,Wunderground v.1.15,2013-02-07 17:55:00,
2013-02-07 13:00:00,56.2,37.3,29.92,ESE,117,3.0,3.0,49,0.00,,,0.00,591,Wunderground v.1.15,2013-02-07 18:00:00,
2013-02-07 13:05:00,56.5,37.6,29.91,South,183,4.0,4.0,49,0.00,,,0.00,591,Wunderground v.1.15,2013-02-07 18:05:00,
2013-02-07 13:15:00,57.0,37.0,29.90,SE,140,4.0,6.0,47,0.00,,,0.00,589,Wunderground v.1.15,2013-02-07 18:15:00,
2013-02-07 13:20:00,57.1,37.6,29.90,ESE,108,4.0,4.0,48,0.00,,,0.00,587,Wunderground v.1.15,2013-02-07 18:20:00,
2013-02-07 13:30:00,57.9,37.8,29.90,SSW,212,4.0,4.0,47,0.00,,,0.00,585,Wunderground v.1.15,2013-02-07 18:30:00,
2013-02-07 13:35:00,58.5,37.8,29.89,SSE,153,2.0,4.0,46,0.00,,,0.00,585,Wunderground v.1.15,2013-02-07 18:35:00,
2013-02-07 13:40:00,58.7,38.5,29.89,SSE,157,3.0,3.0,47,0.00,,,0.00,584,Wunderground v.1.15,2013-02-07 18:40:00,
2013-02-07 13:50:00,59.8,38.4,29.89,SE,138,3.0,4.0,45,0.00,,,0.00,575,Wunderground v.1.15,2013-02-07 18:50:00,
2013-02-07 13:55:00,60.1,38.7,29.89,SW,233,4.0,4.0,45,0.00,,,0.00,566,Wunderground v.1.15,2013-02-07 18:55:00,
2013-02-07 14:05:00,61.0,39.5,29.88,ESE,114,1.0,3.0,45,0.00,,,0.00,566,Wunderground v.1.15,2013-02-07 19:05:00,
2013-02-07 14:10:00,61.6,39.5,29.87,SSE,167,1.0,1.0,44,0.00,,,0.00,561,Wunderground v.1.15,2013-02-07 19:10:00,
2013-02-07 14:20:00,62.8,39.4,29.86,South,181,2.0,2.0,42,0.00,,,0.00,536,Wunderground v.1.15,2013-02-07 19:20:00,
2013-02-07 14:25:00,63.3,39.8,29.86,SW,216,1.0,2.0,42,0.00,,,0.00,529,Wunderground v.1.15,2013-02-07 19:25:00,
2013-02-07 14:35:00,63.7,40.8,29.85,WNW,282,3.0,3.0,43,0.00,,,0.00,548,Wunderground v.1.15,2013-02-07 19:35:00,
2013-02-07 14:40:00,63.8,40.3,29.86,WSW,239,4.0,6.0,42,0.00,,,0.00,512,Wunderground v.1.15,2013-02-07 19:40:00,
2013-02-07 14:50:00,63.2,40.3,29.85,SW,228,5.0,5.0,43,0.00,,,0.00,512,Wunderground v.1.15,2013-02-07 19:50:00,
2013-02-07 14:55:00,63.9,41.5,29.85,SW,236,3.0,5.0,44,0.00,,,0.00,494,Wunderground v.1.15,2013-02-07 19:55:00,
2013-02-07 15:05:00,64.1,40.5,29.85,SW,220,4.0,4.0,42,0.00,,,0.00,448,Wunderground v.1.15,2013-02-07 20:05:00,
2013-02-07 15:15:00,64.9,41.2,29.85,SSW,208,2.0,7.0,42,0.00,,,0.00,483,Wunderground v.1.15,2013-02-07 20:15:00,
2013-02-07 15:20:00,64.8,41.2,29.85,SSW,209,3.0,4.0,42,0.00,,,0.00,410,Wunderground v.1.15,2013-02-07 20:20:00,
2013-02-07 15:25:00,64.9,41.9,29.84,SSE,151,3.0,4.0,43,0.00,,,0.00,445,Wunderground v.1.15,2013-02-07 20:25:00,
2013-02-07 15:35:00,65.3,41.6,29.84,West,259,3.0,8.0,42,0.00,,,0.00,422,Wunderground v.1.15,2013-02-07 20:35:00,
2013-02-07 15:40:00,65.0,41.3,29.84,SW,214,5.0,6.0,42,0.00,,,0.00,413,Wunderground v.1.15,2013-02-07 20:40:00,
2013-02-07 15:50:00,65.2,41.5,29.84,West,278,4.0,4.0,42,0.00,,,0.00,394,Wunderground v.1.15,2013-02-07 20:50:00,
2013-02-07 16:00:00,65.7,42.0,29.83,West,277,3.0,8.0,42,0.00,,,0.00,371,Wunderground v.1.15,2013-02-07 21:00:00,
2013-02-07 16:05:00,65.0,41.3,29.83,West,266,5.0,8.0,42,0.00,,,0.00,359,Wunderground v.1.15,2013-02-07 21:05:00,
2013-02-07 16:10:00,65.1,42.0,29.83,West,265,5.0,6.0,43,0.00,,,0.00,330,Wunderground v.1.15,2013-02-07 21:10:00,
2013-02-07 16:20:00,65.6,42.5,29.82,WSW,241,2.0,3.0,43,0.00,,,0.00,265,Wunderground v.1.15,2013-02-07 21:20:00,
2013-02-07 16:25:00,65.5,41.8,29.82,SSW,199,3.0,4.0,42,0.00,,,0.00,306,Wunderground v.1.15,2013-02-07 21:25:00,
2013-02-07 16:35:00,65.5,41.8,29.82,WSW,257,3.0,3.0,42,0.00,,,0.00,274,Wunderground v.1.15,2013-02-07 21:35:00,
2013-02-07 16:40:00,65.6,41.9,29.81,SSW,197,3.0,3.0,42,0.00,,,0.00,246,Wunderground v.1.15,2013-02-07 21:40:00,
2013-02-07 16:50:00,65.9,42.1,29.81,SW,227,2.0,3.0,42,0.00,,,0.00,223,Wunderground v.1.15,2013-02-07 21:50:00,
2013-02-07 16:55:00,65.9,41.5,29.81,SW,234,1.0,3.0,41,0.00,,,0.00,197,Wunderground v.1.15,2013-02-07 21:55:00,
2013-02-07 17:00:00,65.9,42.1,29.81,West,270,2.0,2.0,42,0.00,,,0.00,193,Wunderground v.1.15,2013-02-07 22:00:00,
2013-02-07 17:10:00,66.1,42.3,29.81,SSE,153,1.0,1.0,42,0.00,,,0.00,156,Wunderground v.1.15,2013-02-07 22:10:00,
2013-02-07 17:15:00,65.8,42.1,29.81,South,170,2.0,4.0,42,0.00,,,0.00,141,Wunderground v.1.15,2013-02-07 22:15:00,
2013-02-07 17:25:00,65.3,42.2,29.80,South,177,2.0,5.0,43,0.00,,,0.00,100,Wunderground v.1.15,2013-02-07 22:25:00,
2013-02-07 17:30:00,65.0,42.5,29.80,SW,214,2.0,2.0,44,0.00,,,0.00,62,Wunderground v.1.15,2013-02-07 22:30:00,
2013-02-07 17:40:00,64.2,43.0,29.80,SW,223,1.0,1.0,46,0.00,,,0.00,32,Wunderground v.1.15,2013-02-07 22:40:00,
2013-02-07 17:45:00,63.7,43.1,29.80,SSW,212,1.0,1.0,47,0.00,,,0.00,19,Wunderground v.1.15,2013-02-07 22:45:00,
2013-02-07 17:50:00,63.2,42.6,29.80,SW,215,1.0,1.0,47,0.00,,,0.00,16,Wunderground v.1.15,2013-02-07 22:50:00,
2013-02-07 18:00:00,62.3,42.9,29.80,East,97,1.0,5.0,49,0.00,,,0.00,11,Wunderground v.1.15,2013-02-07 23:00:00,
2013-02-07 18:05:00,61.8,43.0,29.80,South,185,1.0,5.0,50,0.00,,,0.00,7,Wunderground v.1.15,2013-02-07 23:05:00,
2013-02-07 18:15:00,60.9,43.1,29.80,SW,216,0.0,1.0,52,0.00,,,0.00,0,Wunderground v.1.15,2013-02-07 23:15:00,
2013-02-07 18:20:00,60.4,42.7,29.80,South,181,0.0,0.0,52,0.00,,,0.00,0,Wunderground v.1.15,2013-02-07 23:20:00,
2013-02-07 18:30:00,59.8,42.6,29.80,SSE,168,1.0,1.0,53,0.00,,,0.00,0,Wunderground v.1.15,2013-02-07 23:30:00,
2013-02-07 18:35:00,59.5,42.8,29.80,SSW,192,1.0,3.0,54,0.00,,,0.00,0,Wunderground v.1.15,2013-02-07 23:35:00,
2013-02-07 18:40:00,59.3,42.6,29.80,WSW,247,1.0,1.0,54,0.00,,,0.00,0,Wunderground v.1.15,2013-02-07 23:40:00,
2013-02-07 18:50:00,58.5,42.8,29.80,South,175,0.0,0.0,56,0.00,,,0.00,0,Wunderground v.1.15,2013-02-07 23:50:00,
2013-02-07 18:55:00,58.1,42.9,29.80,SSE,160,0.0,0.0,57,0.00,,,0.00,0,Wunderground v.1.15,2013-02-07 23:55:00,
2013-02-07 19:05:00,57.7,42.6,29.80,SE,139,0.0,0.0,57,0.00,,,0.00,0,Wunderground v.1.15,2013-02-08 00:05:00,
2013-02-07 19:10:00,57.5,42.8,29.80,SSW,205,0.0,0.0,58,0.00,,,0.00,0,Wunderground v.1.15,2013-02-08 00:10:00,
2013-02-07 19:20:00,57.0,42.8,29.79,South,179,0.0,0.0,59,0.00,,,0.00,0,Wunderground v.1.15,2013-02-08 00:20:00,
2013-02-07 19:25:00,56.7,43.0,29.79,SSE,168,0.0,0.0,60,0.00,,,0.00,0,Wunderground v.1.15,2013-02-08 00:25:00,
2013-02-07 19:30:00,56.5,42.8,29.79,South,182,0.0,0.0,60,0.00,,,0.00,0,Wunderground v.1.15,2013-02-08 00:30:00,
2013-02-07 19:40:00,56.4,42.7,29.79,SSW,195,0.0,0.0,60,0.00,,,0.00,0,Wunderground v.1.15,2013-02-08 00:40:00,
2013-02-07 19:45:00,56.4,42.7,29.79,SSW,195,0.0,0.0,60,0.00,,,0.00,0,Wunderground v.1.15,2013-02-08 00:45:00,
2013-02-07 19:55:00,55.7,42.5,29.79,South,169,0.0,0.0,61,0.00,,,0.00,0,Wunderground v.1.15,2013-02-08 00:55:00,
2013-02-07 20:00:00,55.3,42.5,29.79,South,169,0.0,2.0,62,0.00,,,0.00,0,Wunderground v.1.15,2013-02-08 01:00:00,
2013-02-07 20:10:00,54.5,42.2,29.80,SE,146,2.0,6.0,63,0.00,,,0.00,0,Wunderground v.1.15,2013-02-08 01:10:00,
2013-02-07 20:15:00,55.0,42.2,29.80,SSE,152,2.0,6.0,62,0.00,,,0.00,0,Wunderground v.1.15,2013-02-08 01:15:00,
2013-02-07 20:25:00,55.3,42.1,29.80,SE,138,1.0,2.0,61,0.00,,,0.00,0,Wunderground v.1.15,2013-02-08 01:25:00,
2013-02-07 20:30:00,55.4,42.2,29.79,SE,129,1.0,1.0,61,0.00,,,0.00,0,Wunderground v.1.15,2013-02-08 01:30:00,
2013-02-07 20:40:00,55.4,41.7,29.79,SSE,154,1.0,1.0,60,0.00,,,0.00,0,Wunderground v.1.15,2013-02-08 01:40:00,
2013-02-07 20:45:00,55.3,41.6,29.79,SSE,161,1.0,3.0,60,0.00,,,0.00,0,Wunderground v.1.15,2013-02-08 01:45:00,
2013-02-07 20:55:00,55.3,41.6,29.79,SSE,155,1.0,2.0,60,0.00,,,0.00,0,Wunderground v.1.15,2013-02-08 01:55:00,
2013-02-07 21:00:00,55.2,41.5,29.79,SSW,209,1.0,1.0,60,0.00,,,0.00,0,Wunderground v.1.15,2013-02-08 02:00:00,
2013-02-07 21:05:00,55.2,41.5,29.79,SSW,210,0.0,1.0,60,0.00,,,0.00,0,Wunderground v.1.15,2013-02-08 02:05:00,
2013-02-07 21:15:00,54.8,41.6,29.79,SSW,199,0.0,3.0,61,0.00,,,0.00,0,Wunderground v.1.15,2013-02-08 02:15:00,
2013-02-07 21:20:00,55.0,41.8,29.79,SE,143,1.0,1.0,61,0.00,,,0.00,0,Wunderground v.1.15,2013-02-08 02:20:00,
2013-02-07 21:30:00,55.6,41.5,29.78,SE,141,2.0,2.0,59,0.00,,,0.00,0,Wunderground v.1.15,2013-02-08 02:30:00,
2013-02-07 21:35:00,55.9,41.8,29.78,SSW,206,3.0,3.0,59,0.00,,,0.00,0,Wunderground v.1.15,2013-02-08 02:35:00,
2013-02-07 21:45:00,55.9,41.8,29.78,SSW,200,1.0,3.0,59,0.00,,,0.00,0,Wunderground v.1.15,2013-02-08 02:45:00,
2013-02-07 21:50:00,55.9,41.3,29.78,SSW,210,1.0,3.0,58,0.00,,,0.00,0,Wunderground v.1.15,2013-02-08 02:50:00,
2013-02-07 21:55:00,55.9,41.3,29.78,South,191,2.0,3.0,58,0.00,,,0.00,0,Wunderground v.1.15,2013-02-08 02:55:00,
2013-02-07 22:05:00,55.9,41.8,29.78,SW,214,2.0,6.0,59,0.00,,,0.00,0,Wunderground v.1.15,2013-02-08 03:05:00,
2013-02-07 22:10:00,55.9,41.8,29.77,South,183,2.0,2.0,59,0.00,,,0.00,0,Wunderground v.1.15,2013-02-08 03:10:00,
2013-02-07 22:20:00,56.0,42.3,29.77,SW,216,3.0,3.0,60,0.00,,,0.00,0,Wunderground v.1.15,2013-02-08 03:20:00,
2013-02-07 22:25:00,55.9,42.6,29.77,SW,222,2.0,3.0,61,0.00,,,0.00,0,Wunderground v.1.15,2013-02-08 03:25:00,
2013-02-07 22:35:00,55.7,42.5,29.77,South,190,2.0,2.0,61,0.00,,,0.00,0,Wunderground v.1.15,2013-02-08 03:35:00,
2013-02-07 22:40:00,55.5,42.7,29.76,South,187,2.0,2.0,62,0.00,,,0.00,0,Wunderground v.1.15,2013-02-08 03:40:00,
2013-02-07 22:45:00,55.5,42.7,29.77,South,189,2.0,2.0,62,0.00,,,0.00,0,Wunderground v.1.15,2013-02-08 03:45:00,
2013-02-07 22:55:00,55.2,42.8,29.76,SSW,211,1.0,2.0,63,0.00,,,0.00,0,Wunderground v.1.15,2013-02-08 03:55:00,
2013-02-07 23:00:00,55.2,42.8,29.76,SSW,193,2.0,3.0,63,0.00,,,0.00,0,Wunderground v.1.15,2013-02-08 04:00:00,
2013-02-07 23:10:00,55.5,43.5,29.76,SSE,148,4.0,7.0,64,0.00,,,0.00,0,Wunderground v.1.15,2013-02-08 04:10:00,
2013-02-07 23:15:00,55.5,43.5,29.76,SSW,193,5.0,7.0,64,0.00,,,0.00,0,Wunderground v.1.15,2013-02-08 04:15:00,
2013-02-07 23:25:00,55.3,43.7,29.75,WSW,237,3.0,5.0,65,0.00,,,0.00,0,Wunderground v.1.15,2013-02-08 04:25:00,
2013-02-07 23:30:00,55.1,43.9,29.75,SSW,192,4.0,4.0,66,0.00,,,0.00,0,Wunderground v.1.15,2013-02-08 04:30:00,
2013-02-07 23:35:00,55.0,44.2,29.76,SSW,197,4.0,4.0,67,0.00,,,0.00,0,Wunderground v.1.15,2013-02-08 04:35:00,
2013-02-07 23:45:00,54.7,44.7,29.75,WSW,243,4.0,6.0,69,0.00,,,0.00,0,Wunderground v.1.15,2013-02-08 04:45:00,
2013-02-07 23:50:00,54.4,44.8,29.76,South,181,4.0,4.0,70,0.00,,,0.00,0,Wunderground v.1.15,2013-02-08 04:50:00,